[[{"header":{"parameterUnit":"m.s-1","parameterCategory":1,"la1":30.2991,"la2":30.254,"lo1":-89.0895,"lo2":-89.0444,"dy":0.0017,"dx":0.0017,"nx":28,"ny":28,"refTime":"2024-07-26T21:00:00:Z","depth":0,"parameterNumber":2,"parameterNumberName":"U-component_of_WINDS"},"data":[0,0,0,0,0,0,0,0,0,0,0,0,0,0,0,0,0,0,0,0,0,0,0,0,0,0,0,0,0,0,0,0,0,0,0,0,0,0,0,0,0,0,0,0,0,0,0,0,0,0,0,0,0,0,0,0,0,0,-2.4551,-2.4551,0,-2.4597,-2.4598,-2.4598,-2.4571,-2.457,-2.4569,-2.4567,-2.4613,-2.4615,-2.4618,0,0,0,0,0,0,0,0,0,0,0,0,0,-2.4436,-2.4438,-2.455,-2.4551,-2.4552,-2.4597,-2.4598,-2.4598,-2.4571,-2.457,-2.4568,-2.4567,-2.4612,-2.4615,-2.4618,0,0,0,0,0,0,0,0,0,0,0,0,0,-2.4484,-2.4439,-2.455,-2.4544,-2.4544,-2.4597,-2.4598,-2.4598,-2.4572,-2.457,-2.4568,-2.4566,-2.4611,-2.4615,-2.4619,-2.468,0,0,-2.463,-2.4631,0,0,0,0,0,0,0,0,-2.4482,-2.4489,-2.4544,-2.4544,-2.4544,-2.4576,-2.4574,-2.4626,-2.4572,-2.4561,-2.4567,-2.4565,-2.4602,-2.4607,-2.462,-2.4682,-2.4684,-2.463,-2.4632,-2.4634,-2.4635,0,0,0,0,0,0,0,-2.4478,-2.4486,-2.4569,-2.4545,-2.4545,-2.4538,-2.4542,-2.4584,-2.4592,-2.4562,-2.456,-2.4566,-2.4602,-2.4616,-2.462,-2.4685,-2.463,-2.4633,-2.4635,-2.4637,-2.4799,-2.4801,0,0,0,0,0,0,-2.4476,-2.4484,-2.4567,-2.457,-2.4508,-2.4541,-2.4547,-2.4568,-2.4592,-2.4593,-2.4568,-2.4565,-2.4611,-2.4616,-2.4622,-2.4694,-2.4634,-2.4637,-2.4639,-2.4797,-2.48,-2.4802,0,0,0,0,0,0,-2.4473,-2.4483,-2.4565,-2.4527,-2.4536,-2.4545,-2.457,-2.457,-2.4584,-2.4596,-2.4597,-2.4581,-2.4609,-2.4617,-2.4666,-2.4696,-2.4639,-2.4642,-2.4794,-2.4798,-2.4801,-2.4841,0,0,0,0,0,0,-2.447,-2.4483,-2.4507,-2.4527,-2.4539,-2.4609,-2.4572,-2.4572,-2.4591,-2.4587,-2.4608,-2.461,-2.4609,-2.466,-2.4669,-2.47,-2.4645,-2.4792,-2.4796,-2.48,-2.4837,-2.4845,-2.4852,0,0,0,0,0,-2.4466,-2.4516,-2.4508,-2.4519,-2.4569,-2.4611,-2.4617,-2.4615,-2.4593,-2.4617,-2.4624,-2.4609,-2.4691,-2.4666,-2.4675,-2.4707,-2.479,-2.4795,-2.4799,-2.4833,-2.4843,-2.4852,0,0,0,0,0,0,-2.4499,-2.4519,-2.451,-2.4569,-2.4588,-2.4606,-2.4636,-2.4626,-2.4652,-2.4647,-2.4643,-2.4648,-2.4699,-2.4708,-2.4679,-2.4767,-2.4737,-2.4744,-2.4759,-2.4769,-2.4776,-2.4772,-2.4648,0,0,0,0,0,-2.4513,-2.4546,-2.4562,-2.4612,-2.4622,-2.4628,-2.4646,-2.4642,-2.4662,-2.467,-2.4681,-2.4701,-2.4731,-2.4751,-2.4779,-2.4838,-2.4842,-2.4865,-2.4872,-2.4879,-2.4884,-2.4914,-2.4925,-2.4817,-2.4817,-2.4817,0,0,-2.4542,-2.4557,-2.4578,-2.4618,-2.4633,-2.4667,-2.4635,-2.4672,-2.4696,-2.4676,-2.4722,-2.4731,-2.4753,-2.4807,-2.4831,-2.4816,-2.4915,-2.4885,-2.4889,-2.4892,-2.492,-2.4931,-2.494,-2.4821,-2.482,-2.482,0,0,-2.4612,-2.4628,-2.467,-2.4686,-2.4709,-2.4712,-2.4722,-2.4742,-2.4747,-2.4794,-2.4779,-2.4808,-2.486,-2.4875,-2.489,-2.4965,-2.4951,-2.4974,-2.5013,-2.5043,-2.5051,-2.5058,-2.5083,-2.5093,-2.498,-2.498,-2.498,0,-2.4645,-2.4696,-2.4693,-2.4731,-2.4748,-2.4732,-2.4774,-2.4789,-2.482,-2.4832,-2.4815,-2.4879,-2.4893,-2.4949,-2.4968,-2.4981,-2.4991,-2.4971,-2.505,-2.5058,-2.5064,-2.5088,-2.5098,-2.4983,-2.4982,-2.4982,-2.4982,0,-2.4734,-2.4769,-2.4801,-2.4831,-2.4852,-2.4892,-2.4895,-2.4916,-2.4911,-2.4916,-2.4963,-2.4978,-2.5009,-2.5022,-2.5018,-2.5078,-2.5067,-2.5051,-2.502,-2.5077,-2.5099,-2.5109,-2.4986,-2.4985,-2.4985,-2.4984,0,0,-2.4826,-2.4854,-2.4865,-2.4878,-2.4902,-2.4929,-2.4968,-2.4998,-2.5015,-2.5037,-2.5068,-2.5113,-2.5097,-2.5113,-2.511,-2.5137,-2.5193,-2.5116,-2.5116,-2.5128,-2.5258,-2.5269,-2.528,-2.5185,-2.5186,-2.5188,-2.5256,0,-2.4896,-2.4964,-2.4962,-2.5025,-2.5056,-2.5041,-2.5075,-2.5092,-2.5098,-2.5125,-2.513,-2.5161,-2.5139,-2.5148,-2.5174,-2.5181,-2.5218,-2.5176,-2.5212,-2.5213,-2.5206,-2.5292,-2.5305,-2.5368,-2.5265,-2.5266,-2.5267,0,-2.4987,-2.5012,-2.5077,-2.5095,-2.5109,-2.5139,-2.5165,-2.5192,-2.5211,-2.5213,-2.5231,-2.5224,-2.5262,-2.5231,-2.5282,-2.5253,-2.5268,-2.5273,-2.5276,-2.5278,-2.5243,-2.5295,-2.5388,-2.5397,-2.5281,-2.528,-2.5279,0,-2.5045,-2.5095,-2.514,-2.5152,-2.5175,-2.5196,-2.5206,-2.5224,-2.5241,-2.5265,-2.5276,-2.5303,-2.5318,-2.5339,-2.5338,-2.5316,-2.539,-2.5359,-2.5391,-2.5391,-2.5406,-2.5405,-2.5502,-2.5419,-2.5418,-2.5418,-2.5418,0,-2.5122,-2.5163,-2.5166,-2.5194,-2.5238,-2.5236,-2.528,-2.5288,-2.5303,-2.5331,-2.532,-2.5347,-2.5345,-2.5372,-2.5372,-2.5413,-2.5421,-2.5422,-2.5421,-2.5422,-2.5422,-2.5431,-2.5426,-2.5421,-2.542,-2.542,-2.5419,0,-2.5194,-2.5198,-2.5246,-2.5264,-2.5269,-2.5301,-2.5315,-2.5341,-2.5346,-2.5381,-2.5389,-2.5396,-2.5427,-2.5429,-2.5464,-2.5464,-2.5514,-2.5509,-2.5507,-2.5506,-2.5537,-2.5534,-2.5642,-2.5655,-2.5565,-2.5566,-2.5567,0,-2.5243,-2.5273,-2.5294,-2.5312,-2.5324,-2.5353,-2.5371,-2.537,-2.5389,-2.5413,-2.5435,-2.5465,-2.5489,-2.5538,-2.5546,-2.5572,-2.5567,-2.5603,-2.5571,-2.557,-2.5565,-2.5563,-2.5565,-2.5609,-2.561,-2.5611,-2.5611,0,-2.5328,-2.5328,-2.5354,-2.5382,-2.5403,-2.5425,-2.5444,-2.546,-2.5461,-2.5483,-2.5514,-2.5532,-2.5568,-2.5597,-2.5623,-2.5633,-2.5622,-2.5622,-2.563,-2.563,-2.5627,-2.5628,-2.5523,-2.5619,-2.5618,-2.5617,-2.5617,-2.5617,-2.5388,-2.5414,-2.5432,-2.5462,-2.5477,-2.5495,-2.552,-2.5527,-2.5553,-2.5583,-2.558,-2.5614,-2.5632,-2.5665,-2.5677,-2.5703,-2.5691,-2.5704,-2.5706,-2.5709,-2.5712,-2.5625,-2.5708,-2.5708,-2.5708,-2.5708,-2.5707,0,-2.5471,-2.5482,-2.5509,-2.5537,-2.556,-2.5549,-2.557,-2.5589,-2.562,-2.5637,-2.566,-2.5695,-2.5723,-2.5733,-2.576,-2.5779,-2.5774,-2.5786,-2.5783,-2.5785,-2.5722,-2.5711,-2.5789,-2.5789,-2.5789,-2.5789,-2.5789,-2.5789,-2.5517,-2.5559,-2.5562,-2.5611,-2.5622,-2.5655,-2.5668,-2.5684,-2.5698,-2.5738,-2.5761,-2.5767,-2.5781,-2.5809,-2.5833,-2.5835,-2.5845,-2.5858,-2.5858,-2.5798,-2.579,-2.5782,-2.5772,-2.5861,-2.5861,-2.5919,-2.5919,-2.592]},{"header":{"parameterUnit":"m.s-1","parameterCategory":1,"la1":30.2991,"la2":30.254,"lo1":-89.0895,"lo2":-89.0444,"dy":0.0017,"dx":0.0017,"nx":28,"ny":28,"refTime":"2024-07-26T21:00:00:Z","depth":0,"parameterNumber":3,"parameterNumberName":"V-component_of_WINDS"},"data":[0,0,0,0,0,0,0,0,0,0,0,0,0,0,0,0,0,0,0,0,0,0,0,0,0,0,0,0,0,0,0,0,0,0,0,0,0,0,0,0,0,0,0,0,0,0,0,0,0,0,0,0,0,0,0,0,0,0,1.5173,1.5173,0,1.5137,1.5137,1.5137,1.5078,1.5077,1.5076,1.5075,1.5039,1.5039,1.5039,0,0,0,0,0,0,0,0,0,0,0,0,0,1.5193,1.5193,1.5174,1.5173,1.5173,1.5137,1.5137,1.5136,1.5078,1.5077,1.5076,1.5075,1.5039,1.5039,1.5039,0,0,0,0,0,0,0,0,0,0,0,0,0,1.5173,1.5193,1.5174,1.5139,1.5136,1.5138,1.5137,1.5136,1.5079,1.5077,1.5076,1.5074,1.5039,1.5039,1.5039,1.5071,0,0,1.5039,1.5039,0,0,0,0,0,0,0,0,1.5174,1.5173,1.5145,1.5142,1.5138,1.5111,1.513,1.5115,1.5079,1.5101,1.5075,1.5073,1.5064,1.5062,1.5059,1.507,1.5068,1.5039,1.5039,1.5039,1.5039,0,0,0,0,0,0,0,1.5176,1.5174,1.5159,1.5145,1.514,1.5126,1.5121,1.5127,1.5092,1.5099,1.5094,1.5091,1.5062,1.5059,1.5057,1.5067,1.5039,1.5039,1.5039,1.5039,1.5102,1.5104,0,0,0,0,0,0,1.5182,1.5175,1.516,1.5158,1.5153,1.5127,1.5122,1.5121,1.5092,1.5085,1.5092,1.5088,1.506,1.5057,1.5056,1.5091,1.5039,1.5039,1.5039,1.51,1.5102,1.5104,0,0,0,0,0,0,1.5183,1.5181,1.5162,1.5166,1.5162,1.5128,1.5128,1.5121,1.5118,1.5087,1.508,1.5095,1.5058,1.5056,1.5068,1.5089,1.5039,1.5039,1.5098,1.5101,1.5103,1.5162,0,0,0,0,0,0,1.5184,1.5182,1.5194,1.5166,1.5162,1.5174,1.5129,1.5122,1.5118,1.5113,1.5088,1.5082,1.5057,1.5068,1.5068,1.5088,1.5039,1.5096,1.51,1.5103,1.5158,1.5166,1.5173,0,0,0,0,0,1.5185,1.5212,1.5195,1.5193,1.5176,1.5176,1.5173,1.5143,1.512,1.5132,1.5111,1.5083,1.5087,1.507,1.5069,1.509,1.5095,1.5099,1.5102,1.5155,1.5165,1.5173,0,0,0,0,0,0,1.5243,1.5208,1.5188,1.5208,1.5195,1.5166,1.5179,1.5154,1.5148,1.5143,1.5106,1.5101,1.5117,1.5105,1.5086,1.5119,1.5086,1.509,1.5127,1.5136,1.5143,1.5146,1.5039,0,0,0,0,0,1.5259,1.5261,1.523,1.525,1.5245,1.5213,1.5212,1.519,1.5175,1.517,1.515,1.5137,1.5135,1.5135,1.5132,1.5156,1.515,1.517,1.5178,1.5184,1.5188,1.5199,1.5207,1.5116,1.5116,1.5116,0,0,1.529,1.5271,1.5275,1.5261,1.5249,1.5252,1.5209,1.5215,1.5217,1.517,1.518,1.5166,1.5149,1.5167,1.5174,1.5157,1.5211,1.5189,1.5194,1.5194,1.5203,1.5212,1.522,1.5119,1.5118,1.5118,0,0,1.5349,1.5335,1.535,1.5338,1.532,1.5299,1.5302,1.5277,1.5265,1.5274,1.5239,1.5241,1.5239,1.5228,1.5223,1.5277,1.5251,1.5277,1.5317,1.5328,1.5335,1.5341,1.536,1.5367,1.5281,1.5281,1.5281,0,1.539,1.5394,1.5361,1.5368,1.5363,1.5321,1.5336,1.5326,1.5308,1.5306,1.5287,1.5283,1.5268,1.5283,1.5296,1.5293,1.5296,1.528,1.5337,1.5343,1.5348,1.5365,1.5373,1.5284,1.5284,1.5284,1.5283,0,1.5445,1.5448,1.5462,1.5445,1.5442,1.5453,1.5422,1.5422,1.5401,1.5382,1.5391,1.5373,1.5364,1.5366,1.5345,1.5378,1.5368,1.5344,1.531,1.536,1.5376,1.5383,1.5289,1.5288,1.5287,1.5286,0,0,1.5539,1.5504,1.551,1.5501,1.5478,1.5479,1.5489,1.548,1.5481,1.547,1.5476,1.5475,1.5453,1.5446,1.5424,1.5434,1.5477,1.5408,1.5407,1.5421,1.5511,1.5529,1.5537,1.546,1.5461,1.5462,1.5512,0,1.5593,1.5606,1.5577,1.5597,1.5599,1.556,1.5568,1.5554,1.5537,1.5536,1.5516,1.5516,1.5486,1.5482,1.549,1.547,1.5495,1.5466,1.5465,1.5465,1.547,1.5545,1.5564,1.5613,1.5518,1.5519,1.552,0,1.5657,1.5648,1.5669,1.5644,1.5644,1.5651,1.5641,1.5641,1.5625,1.5611,1.5604,1.5577,1.5584,1.5553,1.5562,1.5543,1.5541,1.5531,1.5532,1.553,1.5495,1.5545,1.5627,1.5635,1.5529,1.5529,1.5528,0,1.5723,1.5717,1.5728,1.5722,1.5693,1.5699,1.5688,1.567,1.5667,1.5658,1.5655,1.5648,1.5643,1.5638,1.561,1.559,1.5622,1.5588,1.5611,1.5611,1.5619,1.5618,1.5701,1.5619,1.5619,1.5619,1.5618,0,1.5785,1.5799,1.5757,1.5764,1.5778,1.5745,1.576,1.5744,1.5729,1.5732,1.5698,1.5701,1.5664,1.5664,1.5642,1.5652,1.5651,1.564,1.5634,1.5642,1.5644,1.564,1.5636,1.562,1.562,1.562,1.5619,0,1.5861,1.5833,1.5843,1.5815,1.5808,1.582,1.5796,1.5801,1.5781,1.5786,1.5785,1.5754,1.5751,1.5723,1.5715,1.57,1.5718,1.5706,1.5724,1.572,1.5743,1.5741,1.5826,1.5835,1.5748,1.5749,1.5749,0,1.5902,1.5911,1.5884,1.5884,1.5874,1.5874,1.587,1.5837,1.5835,1.5817,1.5824,1.5819,1.5813,1.5811,1.5788,1.5781,1.5768,1.5798,1.5767,1.5775,1.5767,1.5767,1.5767,1.5805,1.5806,1.5807,1.5808,0,1.5977,1.5963,1.5959,1.5951,1.5947,1.5939,1.5928,1.593,1.5894,1.5893,1.589,1.5885,1.5876,1.5871,1.586,1.5848,1.5822,1.5818,1.5822,1.5831,1.584,1.5835,1.5741,1.5816,1.5815,1.5814,1.5814,1.5814,1.6036,1.6043,1.6025,1.6021,1.601,1.6001,1.6004,1.5985,1.5982,1.5972,1.5953,1.5953,1.5936,1.5918,1.5908,1.5907,1.5892,1.5899,1.59,1.5902,1.5907,1.5841,1.5905,1.5905,1.5905,1.5904,1.5904,0,1.611,1.6096,1.6093,1.6079,1.6077,1.6052,1.6039,1.6038,1.6039,1.6025,1.602,1.6016,1.6011,1.5987,1.598,1.5984,1.5971,1.5983,1.5982,1.5979,1.5922,1.5918,1.5993,1.5993,1.5993,1.5993,1.5993,1.5993,1.6148,1.6157,1.6141,1.6145,1.6131,1.613,1.6125,1.6116,1.6105,1.6102,1.6098,1.6082,1.6064,1.6055,1.6049,1.6042,1.6041,1.6056,1.6045,1.5992,1.5983,1.5975,1.5971,1.6056,1.6056,1.6102,1.6103,1.6103]}]]